Hourly Data Report for June 23, 2018

LONDON CS
ONTARIO
Current Station Operator: ECCC - MSC

43°02'00.000" N
81°09'00.000" W
278.00 m
6144478
71622
WSN

Download Data

Hourly Data (June 2018)
Hourly Data Report for June 23, 2018
TIME Temp Definition
°C
Dew Point Definition
°C
Rel Hum Definition
%
Wind Dir Definition
10's deg

Wind Spd Definition
km/h
Visibility Definition
km
Stn Press Definition
kPa
Hmdx Definition


Wind Chill Definition


Weather Definition


00:00 17.1 16.1 94 LegendMM LegendMM   97.64     LegendNANA
01:00 16.9 15.8 93 LegendMM LegendMM   97.60     LegendNANA
02:00 16.9 15.6 92 LegendMM LegendMM   97.56     LegendNANA
03:00 17.1 15.5 91 LegendMM LegendMM   97.51     LegendNANA
04:00 17.0 15.6 92 LegendMM LegendMM   97.48     LegendNANA
05:00 16.9 15.7 93 LegendMM LegendMM   97.48     LegendNANA
06:00 16.6 15.8 95 LegendMM LegendMM   97.47     LegendNANA
07:00 16.8 16.0 95 LegendMM LegendMM   97.49     LegendNANA
08:00 16.9 16.2 96 LegendMM LegendMM   97.48     LegendNANA
09:00 17.2 16.5 95 LegendMM LegendMM   97.47     LegendNANA
10:00 17.9 16.8 94 LegendMM LegendMM   97.44     LegendNANA
11:00 18.6 17.5 94 LegendMM LegendMM   97.42     LegendNANA
12:00 19.6 17.8 89 LegendMM LegendMM   97.40     LegendNANA
13:00 21.0 18.2 84 LegendMM LegendMM   97.40 27   LegendNANA
14:00 22.3 18.2 77 LegendMM LegendMM   97.37 28   LegendNANA
15:00 22.3 18.0 77 LegendMM LegendMM   97.34 28   LegendNANA
16:00 22.2 18.3 78 LegendMM LegendMM   97.38 28   LegendNANA
17:00 23.1 18.4 75 LegendMM LegendMM   97.36 29   LegendNANA
18:00 21.9 19.0 84 LegendMM LegendMM   97.37 29   LegendNANA
19:00 21.2 18.8 86 LegendMM LegendMM   97.43 28   LegendNANA
20:00 19.9 19.0 94 LegendMM LegendMM   97.46     LegendNANA
21:00 19.5 18.7 95 LegendMM LegendMM   97.52     LegendNANA
22:00 19.4 18.6 95 LegendMM LegendMM   97.58     LegendNANA
23:00 18.9 18.2 96 LegendMM LegendMM   97.57     LegendNANA

Notes on Data Quality.

Legend

  • E = Estimated
  • M = Missing
  • NA = Not Available*
  • [empty] = Indicates an unobserved value
Date modified: